EW2835 Weather Reports


time (UTC)temp
C
wind
direction
speed
KPH
gust
KPH
rain 1hr
cm
rain 24hr
cm
rain mn
cm
humidity
%
barometer
mb
20260507060033 7 23 6.4 16.1 0.00 0.71 0.00 89 1011.7
20260507054529 7 356 4.8 16.1 0.00 0.86 0.00 89 1011.6
20260507053027 7 28 4.8 16.1 0.00 0.86 0.00 89 1011.5
20260507051524 7 76 4.8 17.7 0.00 0.86 0.00 89 1011.4
20260507050028 7 116 1.6 14.5 0.00 0.86 0.00 89 1011.2
20260507044520 7 76 4.8 12.9 0.00 0.97 0.00 89 1011.1
20260507043023 7 46 3.2 16.1 0.00 0.97 0.00 89 1010.8
20260507041515 7 27 3.2 14.5 0.00 0.97 0.00 90 1010.9
20260507040013 6 76 1.6 12.9 0.00 0.97 0.00 90 1010.7
20260507034520 6 95 6.4 16.1 0.00 1.12 0.00 90 1010.6
20260507033012 6 40 6.4 17.7 0.00 1.12 0.00 90 1010.4
20260507031507 6 61 6.4 16.1 0.00 1.12 0.00 90 1010.5
20260507030007 6 86 8.0 22.5 0.00 1.12 0.00 90 1010.4
20260507024503 6 102 8.0 19.3 0.00 1.37 0.00 90 1010.2
20260507023110 6 70 6.4 17.7 0.00 1.37 0.00 90 1010.2
20260507021557 6 52 8.0 17.7 0.00 1.37 0.00 90 1010.2
20260507014556 7 359 3.2 12.9 0.00 1.65 0.00 90 1009.9
20260507013053 7 63 3.2 14.5 0.00 1.65 0.00 90 1009.9
20260507011551 7 14 6.4 16.1 0.00 1.65 0.00 89 1010.0
20260507010049 7 56 3.2 14.5 0.00 1.65 0.00 89 1009.8
20260507004548 7 2 3.2 9.7 0.00 1.78 0.00 89 1009.7
20260507003046 7 359 1.6 14.5 0.00 1.78 0.00 89 1009.5
20260507001607 7 94 6.4 22.5 0.00 1.78 0.00 89 1009.3
20260507000043 7 51 3.2 17.7 0.00 1.78 0.00 90 1009.3
20260506234536 7 59 4.8 14.5 0.00 1.83 0.00 89 1009.2
20260506233033 8 343 3.2 16.1 0.00 1.83 0.00 88 1009.1
20260506231529 8 320 3.2 17.7 0.00 1.83 0.00 88 1009.1
20260506230043 9 37 4.8 17.7 0.00 1.83 0.00 88 1009.1
20260506224523 9 57 6.4 17.7 0.00 1.83 0.00 87 1009.0
20260506223027 10 50 3.2 14.5 0.00 1.83 0.00 87 1008.7
20260506221518 10 348 3.2 11.3 0.00 1.83 0.00 88 1008.6
20260506220015 10 2 0.0 9.7 0.00 1.83 0.00 87 1008.5
20260506214513 10 76 1.6 8.0 0.00 1.83 1.83 88 1008.5
20260506213011 10 60 1.6 14.5 0.00 1.83 1.83 88 1008.5
20260506211509 10 350 1.6 8.0 0.00 1.83 1.83 88 1008.5
20260506210009 10 30 3.2 9.7 0.00 1.83 1.83 88 1008.4
20260506204505 10 65 4.8 12.9 0.00 1.83 1.83 88 1008.3
20260506203002 10 49 3.2 14.5 0.00 1.83 1.83 88 1008.1
20260506201701 10 40 4.8 17.7 0.00 1.83 1.83 89 1008.1
20260506194601 10 54 4.8 9.7 0.00 1.83 1.83 89 1008.1
20260506193022 10 66 3.2 12.9 0.00 1.83 1.83 90 1007.9
20260506191512 10 76 3.2 12.9 0.00 1.83 1.83 90 1007.8
20260506190013 10 344 1.6 9.7 0.00 1.83 1.83 90 1007.7
20260506184509 10 69 4.8 12.9 0.00 1.83 1.83 89 1007.5
20260506183007 11 344 3.2 12.9 0.00 1.83 1.83 90 1007.4
20260506181507 11 60 4.8 12.9 0.00 1.83 1.83 89 1007.2
20260506180009 11 81 1.6 9.7 0.00 1.83 1.83 90 1007.1
20260506174504 11 27 1.6 8.0 0.00 1.83 1.83 89 1006.9
20260506173005 11 57 3.2 9.7 0.00 1.83 1.83 89 1006.8
20260506171504 12 348 3.2 9.7 0.00 1.83 1.83 89 1006.7
20260506170004 12 350 1.6 14.5 0.00 1.83 1.83 89 1006.6
20260506164511 12 357 3.2 12.9 0.00 1.83 1.83 89 1006.7
20260506163006 12 342 1.6 8.0 0.00 1.83 1.83 89 1006.6
20260506160050 12 34 1.6 11.3 0.00 1.83 1.83 90 1006.7
20260506154543 12 72 3.2 9.7 0.00 1.83 1.83 89 1007.0
20260506153041 12 358 3.2 12.9 0.00 1.83 1.83 90 1006.9
20260506151541 12 38 1.6 6.4 0.00 1.83 1.83 92 1007.0
20260506150048 12 54 1.6 14.5 0.00 1.83 1.83 92 1006.8
20260506144540 12 325 3.2 11.3 0.00 1.83 1.83 92 1006.8
20260506143040 12 86 1.6 8.0 0.00 1.83 1.83 92 1006.8
20260506141636 12 59 3.2 14.5 0.00 1.83 1.83 91 1006.7
20260506140036 12 292 4.8 11.3 0.00 1.83 1.83 93 1006.7
20260506134535 11 325 4.8 12.9 0.00 1.83 1.83 94 1006.8
20260506133040 11 356 3.2 11.3 0.00 1.83 1.83 94 1006.7
20260506131536 12 348 1.6 6.4 0.00 1.83 1.83 95 1006.7
20260506130033 11 36 0.0 8.0 0.00 1.83 1.83 96 1006.5
20260506124532 11 339 0.0 4.8 0.00 1.83 1.83 96 1006.6
20260506123032 11 86 3.2 8.0 0.00 1.83 1.83 95 1006.6
20260506121531 11 354 1.6 6.4 0.00 1.83 1.83 95 1006.6
20260506120049 12 61 1.6 6.4 0.00 1.83 1.83 95 1006.5
20260506114632 11 42 0.0 6.4 0.00 1.83 1.83 96 1006.5
20260506113029 11 5 3.2 8.0 0.00 1.83 1.83 96 1006.3
20260506111529 11 55 3.2 9.7 0.00 1.83 1.83 97 1005.9
20260506110030 11 9 6.4 17.7 0.00 1.83 1.83 97 1006.0
20260506104537 11 76 1.6 11.3 0.00 1.83 1.83 98 1005.9
20260506103038 11 22 1.6 16.1 0.03 1.83 1.83 98 1005.8
20260506101527 11 336 6.4 16.1 0.05 1.83 1.83 98 1005.6
20260506100024 11 2 3.2 24.1 0.05 1.83 1.83 98 1005.6
20260506094523 11 337 3.2 11.3 0.08 1.83 1.83 98 1005.4
20260506093022 11 53 1.6 9.7 0.05 1.83 1.83 98 1005.2
20260506091519 10 19 3.2 12.9 0.05 1.80 1.80 98 1005.1
20260506090016 10 317 4.8 9.7 0.05 1.78 1.78 98 1005.1
20260506084530 11 345 1.6 11.3 0.10 1.75 1.75 98 1004.9
20260506083013 11 301 0.0 8.0 0.15 1.75 1.75 98 1004.8
20260506081511 11 342 0.0 9.7 0.20 1.75 1.75 98 1004.6
20260506073008 10 352 0.0 6.4 0.41 1.60 1.60 98 1004.4
20260506071507 10 345 1.6 11.3 0.38 1.55 1.55 98 1004.3
20260506061518 10 17 1.6 8.0 0.15 1.17 1.17 97 1004.2